Vorticity
8 3 6 9 8 10 12 10 9 10 9 9 7 6 5 4 2 2 7 13 12 14 10 13 7 0 7 3 6 8 6 4 6 6 4 3 4 3 4 3 4 5 6
11 13 12 7 10 13 13 12 13 11 9 7 8 10 8 9 11 11 6 4 5 8 15 12 15 13 0 10 3 8 2 9 4 3 5 5 4 3 5 4 4 6 6
14 11 10 14 20 22 20 17 11 9 13 12 9 8 10 12 12 13 18 13 6 5 7 14 14 13 -4 9 5 5 5 2 8 4 2 3 -1 8 8 6 6 6 5
5 10 11 20 17 18 9 14 16 17 14 18 16 20 22 22 21 20 17 24 14 8 4 9 13 14 13 -13 14 7 -6 9 7 12 4 4 3 0 6 9 9 7 6
5 11 3 -3 3 1 23 17 7 14 23 13 24 19 13 13 14 18 25 26 23 13 8 8 10 13 15 20 -11 8 5 -15 4 5 13 9 6 -0 3 6 5 7 8
10 12 9 12 8 7 5 8 7 17 19 26 25 31 23 14 15 21 20 22 22 19 8 10 9 12 11 13 16 5 52 -6 -8 2 18 6 10 7 5 4 3 6 8
11 9 12 14 9 9 4 6 4 9 21 15 12 8 7 9 9 14 22 16 15 18 19 15 11 8 15 14 9 16 -29 6 38 -10 -2 -0 -2 5 13 2 -3 5 7
8 8 8 10 9 15 8 9 14 4 19 22 27 18 9 5 1 9 11 20 19 17 20 20 15 13 14 16 25 20 6 -3 34 -35 18 24 16 -3 6 14 -18 8 3
6 5 7 7 7 9 6 4 7 12 14 10 26 36 18 15 8 9 13 10 16 18 21 25 15 12 11 12 11 18 1 14 6 61 16 -5 37 -15 9 -4 15 -3 2
5 2 3 4 5 9 8 9 3 6 6 29 11 -4 15 8 17 24 21 11 18 17 21 22 20 8 12 12 13 12 30 2 2 -9 48 -9 31 9 21 -13 22 -3 -8
4 3 3 3 3 4 4 4 4 2 6 9 43 19 1 20 11 16 12 17 14 17 21 25 20 9 6 6 14 12 8 17 -6 59 -52 54 -2 32 19 19 12 -13 34
17 5 6 4 2 3 4 2 4 5 5 5 5 11 15 26 23 15 30 12 20 16 20 17 23 12 6 10 7 13 15 17 11 9 50 -32 23 2 -18 -12 -1 27 -7
10 16 5 6 3 2 2 3 2 2 4 2 7 6 14 37 18 3 44 20 13 13 16 18 17 17 9 9 12 16 6 22 16 26 23 13 42 2 35 -6 22 14 41
20 12 12 5 6 5 3 3 3 4 4 3 4 5 15 -10 16 18 33 20 16 17 7 15 29 7 9 3 7 13 14 20 19 13 28 -15 -6 0 35 27 80 12 2
11 22 28 14 5 6 5 5 5 5 5 4 5 4 3 4 31 8 35 26 14 38 17 13 22 4 4 7 4 24 6 12 11 11 28 22 26 23 4 21 -11 18 32
14 13 14 26 20 6 6 5 4 6 6 5 5 4 6 2 7 47 -20 9 38 30 33 31 13 14 21 19 21 4 7 30 -22 40 23 27 28 -16 25 -26 20 16 11
11 12 14 14 20 24 16 10 7 7 6 5 6 6 3 4 5 4 1 0 19 8 42 52 12 12 15 28 11 -22 52 20 1 13 -1 9 -11 19 40 38 13 15 11
12 13 9 10 12 14 18 16 13 11 10 10 9 7 5 5 5 5 3 4 4 29 18 -1 15 44 47 66 60 16 5 49 -17 27 40 36 36 12 14 -6 5 22 16
7 11 14 11 9 9 11 14 14 16 15 13 12 11 9 9 8 7 8 5 3 3 9 15 8 48 8 -4 -0 21 21 45 32 29 21 10 12 11 18 25 2 7 9
10 7 11 11 13 8 9 8 10 13 12 12 12 11 12 10 9 9 8 6 8 8 6 5 3 3 10 13 18 18 10 5 -6 7 8 15 1 10 7 10 11 9 7
12 4 7 10 10 12 9 9 8 9 10 12 11 11 9 8 8 9 10 11 10 9 10 10 9 8 7 5 5 5 4 4 4 3 5 5 5 6 6 6 8 10 10
14 12 22 14 6 7 11 11 10 6 9 10 12 11 10 8 8 9 8 9 9 8 8 8 8 8 8 9 10 10 10 11 11 11 11 10 9 9 9 10 9 10 10
17 5 7 12 11 5 5 8 10 8 8 8 9 11 12 10 9 8 7 7 7 6 6 6 7 7 7 7 8 8 8 8 9 10 10 9 10 10 10 10 9 9 9
4 5 6 12 5 4 8 4 5 8 10 8 8 9 11 12 10 8 7 7 7 7 6 6 7 8 8 8 8 9 9 9 9 9 8 9 8 7 8 8 8 7 7
2 1 3 3 11 13 7 11 6 7 7 10 8 8 9 10 12 12 10 8 7 6 6 6 8 9 10 10 9 9 8 8 8 8 7 7 7 7 7 7 6 7 7
8 11 11 12 13 15 10 7 5 6 8 8 11 10 8 8 9 11 12 12 11 10 10 11 11 11 10 9 9 8 8 8 8 7 8 7 8 9 8 8 8 8 9
Height
3067 3067 3068 3066 3063 3062 3061 3061 3060 3059 3058 3058 3058 3059 3061 3062 3063 3065 3067 3069 3071 3074 3077 3081 3086 3091 3093 3097 3102 3107 3109 3112 3116 3118 3119 3121 3122 3123 3125 3128 3129 3131 3133
3062 3063 3062 3060 3057 3055 3054 3053 3052 3051 3050 3049 3049 3048 3048 3050 3051 3052 3054 3057 3059 3061 3065 3069 3074 3079 3084 3086 3091 3096 3100 3104 3106 3109 3112 3112 3115 3116 3119 3121 3123 3126 3127
3057 3057 3056 3054 3050 3048 3047 3046 3044 3042 3041 3039 3037 3036 3035 3035 3036 3038 3041 3044 3046 3049 3052 3057 3062 3067 3072 3075 3080 3086 3089 3094 3098 3100 3102 3102 3103 3111 3113 3114 3117 3119 3120
3051 3050 3049 3048 3045 3042 3040 3039 3037 3034 3031 3028 3026 3024 3023 3022 3023 3024 3026 3029 3032 3036 3040 3045 3049 3054 3059 3065 3068 3075 3079 3084 3085 3090 3091 3095 3098 3101 3105 3108 3110 3112 3113
3046 3045 3044 3043 3041 3038 3036 3033 3031 3026 3021 3017 3013 3012 3012 3012 3010 3010 3012 3014 3018 3022 3027 3032 3037 3042 3048 3054 3058 3062 3066 3069 3074 3079 3083 3085 3089 3093 3096 3099 3103 3103 3106
3041 3041 3040 3038 3037 3034 3031 3028 3024 3019 3014 3010 3006 3004 3003 3004 3002 3001 3001 3003 3006 3010 3014 3019 3025 3030 3036 3042 3048 3048 3049 3059 3063 3068 3072 3075 3078 3083 3088 3092 3095 3096 3098
3037 3036 3036 3034 3032 3031 3027 3024 3019 3014 3008 3003 3001 2999 2998 2998 2996 2996 2995 2994 2994 2997 3001 3007 3013 3018 3025 3030 3036 3037 3039 3045 3047 3058 3062 3068 3070 3077 3079 3082 3085 3083 3089
3035 3033 3032 3031 3029 3026 3024 3020 3016 3012 3005 3000 2996 2994 2993 2992 2992 2991 2989 2987 2986 2987 2990 2996 3001 3008 3013 3018 3024 3027 3033 3035 3044 3042 3041 3051 3054 3063 3067 3075 3075 3075 3078
3031 3030 3029 3027 3026 3023 3020 3017 3013 3009 3002 2997 2992 2988 2988 2987 2984 2982 2979 2979 2979 2980 2982 2985 2990 2996 3002 3008 3012 3017 3021 3027 3032 3037 3042 3043 3043 3050 3057 3062 3065 3060 3064
3028 3026 3024 3023 3023 3020 3017 3013 3009 3005 3001 2995 2990 2986 2984 2982 2978 2974 2972 2971 2972 2972 2974 2978 2982 2987 2993 2998 3003 3007 3011 3014 3021 3026 3028 3034 3036 3041 3048 3048 3053 3053 3055
3022 3021 3020 3019 3019 3017 3014 3011 3007 3004 3000 2994 2989 2986 2982 2978 2974 2968 2965 2964 2964 2966 2967 2971 2975 2981 2986 2991 2994 2997 3001 3005 3010 3014 3019 3024 3031 3033 3039 3043 3042 3044 3043
3018 3017 3016 3015 3013 3012 3010 3008 3005 3002 2997 2992 2987 2983 2978 2974 2969 2965 2960 2960 2959 2961 2962 2965 2969 2973 2978 2983 2986 2989 2993 2996 2998 3005 3009 3018 3017 3021 3024 3027 3030 3034 3036
3012 3011 3011 3010 3009 3008 3006 3004 3002 2999 2995 2991 2986 2981 2976 2970 2966 2961 2956 2955 2956 2956 2958 2960 2964 2968 2973 2977 2981 2983 2986 2989 2991 2996 3002 3010 3011 3016 3018 3019 3021 3024 3024
3006 3004 3004 3005 3005 3003 3002 3001 2999 2997 2993 2990 2986 2981 2976 2971 2965 2959 2954 2953 2953 2953 2954 2955 2957 2962 2967 2970 2974 2976 2977 2980 2983 2988 2994 2998 3000 3002 3005 3009 3010 3013 3016
3003 3000 2998 2998 2998 2999 2997 2996 2995 2993 2991 2988 2984 2980 2975 2971 2967 2961 2956 2953 2951 2948 2948 2951 2953 2958 2960 2964 2966 2969 2971 2972 2976 2977 2983 2988 2992 2994 2997 3001 3003 3005 3008
3000 2997 2994 2992 2992 2992 2992 2991 2991 2989 2987 2985 2982 2979 2975 2972 2967 2964 2959 2954 2950 2946 2942 2944 2948 2951 2954 2957 2962 2963 2966 2966 2969 2974 2976 2980 2980 2988 2992 2993 2996 2999 2999
2997 2994 2991 2988 2987 2986 2985 2985 2985 2984 2983 2981 2979 2977 2974 2972 2969 2964 2962 2958 2953 2949 2946 2943 2945 2947 2949 2952 2957 2956 2959 2962 2956 2968 2973 2975 2976 2981 2985 2988 2989 2994 2993
2995 2991 2988 2985 2982 2981 2980 2979 2978 2977 2977 2976 2975 2974 2972 2970 2968 2966 2963 2960 2957 2954 2951 2948 2946 2946 2948 2947 2951 2952 2957 2954 2961 2966 2968 2970 2973 2978 2982 2982 2985 2985 2987
2991 2989 2985 2983 2979 2976 2975 2974 2973 2972 2971 2970 2969 2969 2968 2967 2966 2964 2962 2961 2959 2956 2954 2950 2948 2947 2947 2947 2948 2949 2954 2955 2960 2960 2963 2967 2968 2973 2976 2979 2981 2982 2984
2986 2983 2981 2979 2977 2974 2971 2970 2968 2967 2966 2965 2965 2964 2963 2963 2963 2962 2960 2958 2957 2956 2955 2954 2952 2951 2950 2948 2949 2949 2950 2952 2954 2957 2962 2965 2969 2971 2971 2973 2976 2979 2980
2979 2977 2975 2974 2972 2969 2967 2966 2964 2963 2962 2960 2959 2959 2959 2959 2958 2958 2958 2957 2956 2955 2954 2954 2953 2952 2953 2953 2954 2953 2954 2956 2957 2959 2961 2964 2965 2967 2968 2969 2971 2972 2973
2971 2969 2967 2966 2966 2965 2963 2961 2960 2958 2958 2957 2955 2954 2954 2954 2954 2954 2953 2953 2953 2953 2952 2952 2952 2951 2951 2952 2953 2953 2955 2956 2957 2958 2959 2960 2961 2962 2964 2965 2965 2966 2967
2962 2961 2959 2959 2957 2957 2958 2957 2954 2951 2951 2951 2951 2949 2949 2949 2950 2950 2950 2950 2950 2950 2949 2949 2949 2950 2949 2949 2949 2950 2951 2952 2953 2954 2954 2955 2956 2957 2957 2957 2958 2959 2959
2954 2953 2951 2950 2951 2950 2949 2950 2948 2946 2946 2945 2945 2945 2945 2943 2943 2944 2944 2945 2946 2946 2945 2945 2945 2945 2945 2945 2945 2945 2946 2947 2948 2948 2949 2950 2950 2951 2951 2951 2951 2951 2951
2944 2943 2941 2940 2941 2941 2939 2940 2940 2939 2940 2939 2938 2938 2938 2939 2939 2937 2937 2938 2938 2939 2939 2940 2941 2941 2941 2941 2941 2941 2941 2942 2943 2944 2944 2944 2944 2944 2944 2944 2944 2944 2943
2931 2930 2930 2929 2930 2930 2930 2931 2930 2930 2932 2932 2932 2932 2931 2931 2932 2933 2933 2933 2933 2934 2935 2935 2935 2935 2935 2936 2936 2937 2937 2938 2938 2938 2938 2938 2938 2938 2938 2936 2935 2934 2933